Regional Weather Roundup
Issued by NWS Kansas City/Pleasant Hill, MO

Home | Current Version | Previous Version | Graphics & Text | Print | Product List | Glossary Off
Versions: 1 2 3 4 5 6 7 8 9 10 11 12 13 14 15 16 17 18 19 20 21 22 23 24 25 26 27

000
ASUS43 KEAX 062210
RWREAX

WEATHER ROUNDUP FOR EASTERN KANSAS AND NORTHWEST MISSOURI
NATIONAL WEATHER SERVICE KANSAS CITY/PLEASANT HILL MO
400 PM CST TUE DEC 06 2016

KSZ040-057-103>105-MOZ028-029-037-043-062300-
...KANSAS CITY METROPOLITAN AREA...

CITY           SKY/WX    TMP DP  RH WIND       PRES   REMARKS
K.C. INTL      PTCLDY    37  12  35 NW7       30.06R WCI  32
K.C. DOWNTOWN  CLEAR     38  12  34 NW9       30.06R WCI  31
LEES SUMMIT    PTCLDY    37  14  38 NW9       30.06R WCI  30
OLATHE - IXD   CLEAR     36  13  38 NW10      30.07R WCI  28
OLATHE - OJC   CLEAR     36  12  37 N8        30.06R WCI  30
LAWRENCE       CLEAR     39  14  36 NW8       30.08R WCI  33

$$

MOZ001>008-011>017-020>025-030>033-038>040-044>046-053-054-062300-
...NORTHERN AND CENTRAL MISSOURI...

CITY           SKY/WX    TMP DP  RH WIND       PRES   REMARKS
ST. JOSEPH     CLEAR     36  13  38 NW10      30.06R WCI  28
MOSBY          CLEAR     37  12  35 NW8       30.06R WCI  31
WARRENSBURG    PTCLDY    37  14  38 NW8       30.06R WCI  31
WHITEMAN AFB   NOT AVBL
CLINTON        PTCLDY    39  16  38 CALM      30.06R
SEDALIA        PTCLDY    39  20  46 NW7       30.05R WCI  34
WARSAW         NOT AVBL
CHILLICOTHE      N/A     37  15  40 W9        30.05R WCI  30
KIRKSVILLE     CLEAR     35  17  47 W10       30.00R WCI  27

$$

MOZ041-047>049-056>058-063>065-088>090-097-062300-
...EASTERN AND SOUTHERN MISSOURI...

CITY           SKY/WX    TMP DP  RH WIND       PRES   REMARKS
ST. LOUIS INTL CLOUDY    42  30  62 W12       29.99R
SPIRIT OF STL  CLOUDY    41  32  70 W9        29.99R
COLUMBIA       PTCLDY    38  22  52 W12       30.02R WCI  30
JEFFERSON CITY MOCLDY    40  24  53 NW9       30.03R WCI  34
ROLLA          CLOUDY    38  25  59 NW8       29.98S WCI  32
OSAGE BEACH    MOCLDY    40  17  39 VRB6      30.03S
SPRINGFIELD    CLOUDY    40  25  55 N9        30.02R WCI  34
BRANSON        MOCLDY    41  32  70 N8        30.01R
JOPLIN         PTCLDY    40  21  46 N12       30.06R WCI  33
WEST PLAINS    CLOUDY    41  34  76 NW7       29.99S

$$

IAZ060-094-KSZ022-034>040-054-083-096-NEZ052-066-093-062300-
...KANSAS...SOUTHEAST NEBRASKA AND IOWA...

CITY           SKY/WX    TMP DP  RH WIND       PRES   REMARKS
TOPEKA         CLEAR     39  12  33 NW8       30.07R WCI  33
MANHATTAN      CLEAR     39  12  33 NW8       30.08R WCI  33
EMPORIA        CLEAR     39  11  31 NW7       30.07R WCI  34
CHANUTE        PTCLDY    41  14  33 N10       30.08R WCI  35
WICHITA        PTSUNNY   40  14  34 N6        30.09R
OMAHA          CLEAR     33  10  38 NW17      30.00R WCI  22
LINCOLN        CLEAR     35   8  32 NW14      30.05R WCI  26
FALLS CITY     CLEAR     37  13  37 NW12      30.05R WCI  29
LAMONI         CLEAR     33  16  49 W15       29.97F WCI  23
DES MOINES     PTCLDY    33  14  45 W17       29.95R WCI  22

$$





USA.gov is the U.S. government's official web portal to all federal, state and local government web resources and services.